• In Uzbekistan
  • List of Countries
  • For 7 days
  • Water Temperature
  • Satellite Maps
  • Weather Map
  • Weather Widgets
  • user-avatar
    Login

    Hourly Weather Bad Rippoldsau-Schapbach

    Today, 21 April, Saturday

    Time Temperature Precipitation Wind Pressure Humidity
    00:00 +12°C° 0 mm 0 mps 704 mmHg 65%
    01:00 +14°C° 0 mm 1 mps 704 mmHg 62%
    02:00 +13°C° 0 mm 1 mps 704 mmHg 63%
    03:00 +12°C° 0 mm 0 mps 704 mmHg 65%
    04:00 +12°C° 0 mm 0 mps 704 mmHg 66%
    05:00 +12°C° 0 mm 0 mps 704 mmHg 67%
    06:00 +13°C° 0 mm 0 mps 704 mmHg 68%
    07:00 +15°C° 0 mm 1 mps 704 mmHg 62%
    08:00 +18°C° 0 mm 1 mps 704 mmHg 57%
    09:00 +20°C° 0 mm 1 mps 705 mmHg 52%
    10:00 +21°C° 0 mm 0 mps 705 mmHg 47%
    11:00 +24°C° 0 mm 1 mps 705 mmHg 44%
    12:00 +24°C° 0 mm 1 mps 705 mmHg 42%
    13:00 +25°C° 0 mm 1 mps 705 mmHg 39%
    14:00 +25°C° 0 mm 1 mps 704 mmHg 40%
    15:00 +25°C° 0 mm 1 mps 704 mmHg 41%
    16:00 +25°C° 0 mm 1 mps 704 mmHg 41%
    17:00 +23°C° 0 mm 1 mps 703 mmHg 49%
    18:00 +21°C° 0 mm 1 mps 703 mmHg 56%
    19:00 +19°C° 0 mm 1 mps 703 mmHg 63%
    20:00 +18°C° 0 mm 1 mps 703 mmHg 65%
    21:00 +16°C° 0 mm 1 mps 703 mmHg 68%
    22:00 +15°C° 0 mm 1 mps 703 mmHg 70%
    23:00 +14°C° 0 mm 1 mps 703 mmHg 72%

    Tomorrow, 22 April, Sunday

    Time Temperature Precipitation Wind Pressure Humidity
    00:00 +14°C° 0 mm 1 mps 703 mmHg 74%
    01:00 +13°C° 0 mm 1 mps 702 mmHg 76%
    02:00 +13°C° 0 mm 1 mps 702 mmHg 78%
    03:00 +13°C° 0 mm 1 mps 702 mmHg 80%
    04:00 +12°C° 0 mm 1 mps 702 mmHg 82%
    05:00 +13°C° 0 mm 1 mps 702 mmHg 80%
    06:00 +14°C° 0 mm 1 mps 702 mmHg 79%
    07:00 +14°C° 0 mm 1 mps 702 mmHg 78%
    08:00 +16°C° 0 mm 2 mps 702 mmHg 70%
    09:00 +19°C° 0 mm 2 mps 702 mmHg 62%
    10:00 +21°C° 0 mm 2 mps 703 mmHg 53%
    11:00 +23°C° 0.1 mm 2 mps 702 mmHg 50%
    12:00 +24°C° 0.1 mm 2 mps 702 mmHg 47%
    13:00 +24°C° 0.1 mm 3 mps 702 mmHg 44%
    14:00 +25°C° 0 mm 3 mps 702 mmHg 43%
    15:00 +25°C° 0 mm 3 mps 702 mmHg 42%
    16:00 +25°C° 0 mm 3 mps 702 mmHg 41%
    17:00 +22°C° 0 mm 3 mps 701 mmHg 49%
    18:00 +20°C° 0 mm 2 mps 701 mmHg 56%
    19:00 +18°C° 0 mm 2 mps 701 mmHg 64%
    20:00 +17°C° 0 mm 2 mps 701 mmHg 66%
    21:00 +15°C° 0 mm 2 mps 701 mmHg 68%
    22:00 +14°C° 0 mm 2 mps 701 mmHg 70%
    23:00 +14°C° 0 mm 2 mps 701 mmHg 69%

    Day after tomorrow, 23 April, Monday

    Time Temperature Precipitation Wind Pressure Humidity
    00:00 +13°C° 0 mm 2 mps 701 mmHg 69%
    01:00 +13°C° 0 mm 2 mps 701 mmHg 68%
    02:00 +13°C° 0 mm 2 mps 701 mmHg 69%
    03:00 +13°C° 0 mm 2 mps 701 mmHg 71%
    04:00 +12°C° 0 mm 2 mps 701 mmHg 72%
    05:00 +13°C° 0.2 mm 2 mps 701 mmHg 75%
    06:00 +13°C° 0.2 mm 2 mps 701 mmHg 78%
    07:00 +13°C° 0.2 mm 2 mps 701 mmHg 81%
    08:00 +14°C° 0.1 mm 2 mps 702 mmHg 76%
    09:00 +16°C° 0.1 mm 3 mps 702 mmHg 72%
    10:00 +17°C° 0.1 mm 3 mps 703 mmHg 67%
    11:00 +18°C° 0.4 mm 4 mps 703 mmHg 67%
    12:00 +18°C° 0.4 mm 4 mps 703 mmHg 67%
    13:00 +19°C° 0.4 mm 5 mps 703 mmHg 68%
    14:00 +18°C° 1 mm 4 mps 703 mmHg 71%
    15:00 +18°C° 1 mm 4 mps 702 mmHg 75%
    16:00 +17°C° 1 mm 4 mps 702 mmHg 78%
    17:00 +16°C° 0.2 mm 3 mps 702 mmHg 81%
    18:00 +15°C° 0.2 mm 2 mps 703 mmHg 84%
    19:00 +14°C° 0.2 mm 2 mps 703 mmHg 86%
    20:00 +13°C° 0 mm 2 mps 703 mmHg 88%
    21:00 +12°C° 0 mm 1 mps 703 mmHg 90%
    22:00 +11°C° 0 mm 1 mps 703 mmHg 92%
    23:00 +11°C° 0 mm 1 mps 703 mmHg 93%

    24 April, Tuesday

    Time Temperature Precipitation Wind Pressure Humidity
    00:00 +10°C° 0 mm 1 mps 703 mmHg 93%
    01:00 +10°C° 0 mm 1 mps 703 mmHg 94%
    02:00 +10°C° 0 mm 1 mps 703 mmHg 94%
    03:00 +9°C° 0 mm 1 mps 703 mmHg 94%
    04:00 +9°C° 0 mm 1 mps 703 mmHg 94%
    05:00 +10°C° 0 mm 1 mps 703 mmHg 92%
    06:00 +10°C° 0 mm 1 mps 703 mmHg 91%
    07:00 +11°C° 0 mm 1 mps 703 mmHg 89%
    08:00 +13°C° 0 mm 1 mps 704 mmHg 81%
    09:00 +15°C° 0 mm 2 mps 704 mmHg 72%
    10:00 +16°C° 0 mm 2 mps 704 mmHg 64%
    11:00 +18°C° 0 mm 2 mps 704 mmHg 58%
    12:00 +19°C° 0 mm 2 mps 704 mmHg 53%
    13:00 +20°C° 0 mm 3 mps 704 mmHg 47%
    14:00 +20°C° 0 mm 3 mps 703 mmHg 47%
    15:00 +20°C° 0 mm 3 mps 703 mmHg 47%
    16:00 +21°C° 0 mm 3 mps 703 mmHg 48%
    17:00 +19°C° 0 mm 2 mps 702 mmHg 55%
    18:00 +17°C° 0 mm 2 mps 702 mmHg 63%
    19:00 +16°C° 0 mm 1 mps 702 mmHg 71%
    20:00 +14°C° 0 mm 1 mps 702 mmHg 76%
    21:00 +13°C° 0 mm 1 mps 702 mmHg 80%
    22:00 +12°C° 0 mm 1 mps 702 mmHg 84%
    23:00 +11°C° 0 mm 1 mps 702 mmHg 85%

    25 April, Wednesday

    Time Temperature Precipitation Wind Pressure Humidity
    00:00 +11°C° 0 mm 1 mps 701 mmHg 87%
    01:00 +11°C° 0 mm 1 mps 701 mmHg 88%
    02:00 +10°C° 0 mm 1 mps 701 mmHg 88%
    03:00 +10°C° 0 mm 1 mps 700 mmHg 88%
    04:00 +10°C° 0 mm 1 mps 700 mmHg 88%
    05:00 +11°C° 0 mm 1 mps 700 mmHg 85%
    06:00 +12°C° 0 mm 1 mps 700 mmHg 83%
    07:00 +13°C° 0 mm 1 mps 700 mmHg 80%
    08:00 +15°C° 0 mm 2 mps 700 mmHg 72%
    09:00 +18°C° 0 mm 3 mps 700 mmHg 64%
    10:00 +20°C° 0 mm 4 mps 701 mmHg 56%
    11:00 +20°C° 0.2 mm 4 mps 700 mmHg 56%
    12:00 +21°C° 0.2 mm 5 mps 700 mmHg 56%
    13:00 +22°C° 0.2 mm 5 mps 699 mmHg 56%
    14:00 +21°C° 0.6 mm 5 mps 699 mmHg 59%
    15:00 +21°C° 0.6 mm 5 mps 698 mmHg 63%
    16:00 +21°C° 0.6 mm 5 mps 698 mmHg 66%
    17:00 +19°C° 0.4 mm 5 mps 698 mmHg 72%
    18:00 +18°C° 0.4 mm 4 mps 698 mmHg 77%
    19:00 +15°C° 0.4 mm 4 mps 698 mmHg 82%
    20:00 +14°C° 0.3 mm 3 mps 698 mmHg 85%
    21:00 +13°C° 0.3 mm 3 mps 698 mmHg 88%
    22:00 +13°C° 0.3 mm 2 mps 699 mmHg 91%
    23:00 +13°C° 0.1 mm 2 mps 698 mmHg 92%

    26 April, Thursday

    Time Temperature Precipitation Wind Pressure Humidity
    00:00 +12°C° 0.1 mm 2 mps 698 mmHg 93%
    01:00 +12°C° 0.1 mm 1 mps 698 mmHg 94%
    02:00 +12°C° 0.2 mm 1 mps 698 mmHg 93%
    03:00 +12°C° 0.2 mm 1 mps 698 mmHg 93%
    04:00 +11°C° 0.2 mm 1 mps 698 mmHg 93%
    05:00 +10°C° 0.8 mm 2 mps 698 mmHg 92%
    06:00 +9°C° 0.8 mm 3 mps 698 mmHg 91%
    07:00 +8°C° 0.8 mm 3 mps 699 mmHg 90%
    08:00 +7°C° 0.5 mm 4 mps 699 mmHg 85%
    09:00 +7°C° 0.5 mm 4 mps 700 mmHg 81%
    10:00 +7°C° 0.5 mm 4 mps 700 mmHg 76%
    11:00 +8°C° 0.1 mm 5 mps 700 mmHg 70%
    12:00 +9°C° 0.1 mm 5 mps 701 mmHg 64%
    13:00 +9°C° 0.1 mm 5 mps 701 mmHg 58%
    14:00 +10°C° 0.1 mm 5 mps 701 mmHg 57%
    15:00 +11°C° 0.1 mm 4 mps 701 mmHg 56%
    16:00 +11°C° 0.1 mm 4 mps 701 mmHg 55%
    17:00 +10°C° 0.1 mm 4 mps 701 mmHg 60%
    18:00 +9°C° 0.1 mm 3 mps 701 mmHg 65%
    19:00 +8°C° 0.1 mm 3 mps 701 mmHg 70%
    20:00 +5°C° 0 mm 3 mps 701 mmHg 74%
    21:00 +5°C° 0 mm 2 mps 701 mmHg 78%
    22:00 +4°C° 0 mm 2 mps 702 mmHg 82%
    23:00 +4°C° 0 mm 2 mps 702 mmHg 84%
    Show more